Time,TemperatureF,DewpointF,PressureIn,WindDirection,WindDirectionDegrees,WindSpeedMPH,WindSpeedGustMPH,Humidity,HourlyPrecipIn,Conditions,Clouds,dailyrainin,SolarRadiationWatts/m^2,SoftwareType,DateUTC
2013-07-30 00:02:00,54.0,49.0,-100.00,NW,307,0.0,0.0,83,0.00,,,0.07,0.000000,,2013-07-30 07:02:00,
2013-07-30 00:33:00,52.0,49.0,-100.00,West,261,0.0,1.0,89,0.00,,,0.07,0.000000,,2013-07-30 07:33:00,
2013-07-30 00:43:00,52.0,49.0,-100.00,West,261,0.0,1.0,89,0.00,,,0.07,0.000000,,2013-07-30 07:43:00,
2013-07-30 00:53:00,52.0,49.0,-100.00,West,261,0.0,1.0,89,0.00,,,0.07,0.000000,,2013-07-30 07:53:00,
2013-07-30 01:02:00,52.0,49.0,-100.00,West,261,0.0,1.0,89,0.00,,,0.07,0.000000,,2013-07-30 08:02:00,
2013-07-30 01:33:00,51.0,48.0,-100.00,North,4,2.0,2.0,91,0.00,,,0.01,0.000000,,2013-07-30 08:33:00,
2013-07-30 01:43:00,51.0,48.0,-100.00,North,4,2.0,2.0,91,0.00,,,0.01,0.000000,,2013-07-30 08:43:00,
2013-07-30 01:53:00,51.0,48.0,-100.00,North,4,2.0,2.0,91,0.00,,,0.01,0.000000,,2013-07-30 08:53:00,
2013-07-30 02:02:00,51.0,48.0,-100.00,North,4,2.0,2.0,91,0.00,,,0.01,0.000000,,2013-07-30 09:02:00,
2013-07-30 02:33:00,49.0,48.0,-100.00,NW,306,0.0,2.0,95,0.00,,,0.00,0.000000,,2013-07-30 09:33:00,
2013-07-30 02:43:00,49.0,48.0,-100.00,NW,306,0.0,2.0,95,0.00,,,0.00,0.000000,,2013-07-30 09:43:00,
2013-07-30 02:53:00,49.0,48.0,-100.00,NW,306,0.0,2.0,95,0.00,,,0.00,0.000000,,2013-07-30 09:53:00,
2013-07-30 03:02:00,49.0,48.0,-100.00,NW,306,0.0,2.0,95,0.00,,,0.00,0.000000,,2013-07-30 10:02:00,
2013-07-30 03:44:00,48.0,47.0,-100.00,NNW,344,0.0,2.0,96,0.00,,,0.00,0.000000,,2013-07-30 10:44:00,
2013-07-30 03:52:00,48.0,47.0,-100.00,NNW,344,0.0,2.0,96,0.00,,,0.00,0.000000,,2013-07-30 10:52:00,
2013-07-30 04:02:00,48.0,47.0,-100.00,NNW,344,0.0,2.0,96,0.00,,,0.00,0.000000,,2013-07-30 11:02:00,
2013-07-30 04:33:00,47.0,47.0,-100.00,NNE,13,1.0,2.0,99,0.00,,,0.00,0.000000,,2013-07-30 11:33:00,
2013-07-30 04:43:00,47.0,47.0,-100.00,NNE,13,1.0,2.0,99,0.00,,,0.00,0.000000,,2013-07-30 11:43:00,
2013-07-30 04:53:00,47.0,47.0,-100.00,NNE,13,1.0,2.0,99,0.00,,,0.00,0.000000,,2013-07-30 11:53:00,
2013-07-30 05:33:00,47.0,46.0,-100.00,WSW,242,1.0,1.0,98,0.00,,,0.00,0.000000,,2013-07-30 12:33:00,
2013-07-30 05:42:00,47.0,46.0,-100.00,WSW,242,1.0,1.0,98,0.00,,,0.00,0.000000,,2013-07-30 12:42:00,
2013-07-30 05:53:00,47.0,46.0,-100.00,WSW,242,1.0,1.0,98,0.00,,,0.00,0.000000,,2013-07-30 12:53:00,
2013-07-30 06:01:00,47.0,46.0,-100.00,WSW,242,1.0,1.0,98,0.00,,,0.00,0.000000,,2013-07-30 13:01:00,
2013-07-30 06:33:00,48.0,47.0,-100.00,WNW,289,1.0,3.0,97,0.00,,,-99.99,7.000000,,2013-07-30 13:33:00,
2013-07-30 06:43:00,48.0,47.0,-100.00,WNW,289,1.0,3.0,97,0.00,,,-99.99,7.000000,,2013-07-30 13:43:00,
2013-07-30 06:52:00,48.0,47.0,-100.00,WNW,289,1.0,3.0,97,0.00,,,-99.99,7.000000,,2013-07-30 13:52:00,
2013-07-30 07:02:00,48.0,47.0,-100.00,WNW,289,1.0,3.0,97,0.00,,,-99.99,7.000000,,2013-07-30 14:02:00,
2013-07-30 07:43:00,60.0,53.0,-100.00,NE,54,1.0,2.0,79,0.00,,,0.00,93.000000,,2013-07-30 14:43:00,
2013-07-30 07:53:00,60.0,53.0,-100.00,NE,54,1.0,2.0,79,0.00,,,0.00,93.000000,,2013-07-30 14:53:00,
2013-07-30 08:02:00,60.0,53.0,-100.00,NE,54,1.0,2.0,79,0.00,,,0.00,93.000000,,2013-07-30 15:02:00,
2013-07-30 08:43:00,71.0,57.0,-100.00,NW,309,1.0,2.0,61,0.00,,,0.00,347.000000,,2013-07-30 15:43:00,
2013-07-30 08:53:00,71.0,57.0,-100.00,NW,309,1.0,2.0,61,0.00,,,0.00,347.000000,,2013-07-30 15:53:00,
2013-07-30 09:02:00,71.0,57.0,-100.00,NW,309,1.0,2.0,61,0.00,,,0.00,347.000000,,2013-07-30 16:02:00,
2013-07-30 09:44:00,73.0,48.0,-100.00,SW,226,4.0,7.0,41,0.00,,,0.00,513.000000,,2013-07-30 16:44:00,
2013-07-30 09:52:00,73.0,48.0,-100.00,SW,226,4.0,7.0,41,0.00,,,0.00,513.000000,,2013-07-30 16:52:00,
2013-07-30 10:02:00,73.0,48.0,-100.00,SW,226,4.0,7.0,41,0.00,,,0.00,513.000000,,2013-07-30 17:02:00,
2013-07-30 10:43:00,75.0,48.0,-100.00,SSW,203,6.0,10.0,38,0.00,,,0.00,726.000000,,2013-07-30 17:43:00,
2013-07-30 10:53:00,75.0,48.0,-100.00,SSW,203,6.0,10.0,38,0.00,,,0.00,726.000000,,2013-07-30 17:53:00,
2013-07-30 11:02:00,75.0,48.0,-100.00,SSW,203,6.0,10.0,38,0.00,,,0.00,726.000000,,2013-07-30 18:02:00,
2013-07-30 11:43:00,77.0,46.0,-100.00,South,177,5.0,11.0,34,0.00,,,0.00,872.000000,,2013-07-30 18:43:00,
2013-07-30 11:52:00,77.0,46.0,-100.00,South,177,5.0,11.0,34,0.00,,,0.00,872.000000,,2013-07-30 18:52:00,
2013-07-30 12:02:00,77.0,46.0,-100.00,South,177,5.0,11.0,34,0.00,,,0.00,872.000000,,2013-07-30 19:02:00,
2013-07-30 12:44:00,78.0,46.0,-100.00,ESE,114,6.0,11.0,32,0.00,,,0.00,926.000000,,2013-07-30 19:44:00,
2013-07-30 12:52:00,78.0,46.0,-100.00,ESE,114,6.0,11.0,32,0.00,,,0.00,926.000000,,2013-07-30 19:52:00,
2013-07-30 13:02:00,78.0,46.0,-100.00,ESE,114,6.0,11.0,32,0.00,,,0.00,926.000000,,2013-07-30 20:02:00,
2013-07-30 13:33:00,80.0,44.0,-100.00,South,180,7.0,12.0,28,0.00,,,0.00,969.000000,,2013-07-30 20:33:00,
2013-07-30 13:43:00,80.0,44.0,-100.00,South,180,7.0,12.0,28,0.00,,,0.00,969.000000,,2013-07-30 20:43:00,
2013-07-30 13:52:00,80.0,44.0,-100.00,South,180,7.0,12.0,28,0.00,,,0.00,969.000000,,2013-07-30 20:52:00,
2013-07-30 14:02:00,80.0,44.0,-100.00,South,180,7.0,12.0,28,0.00,,,0.00,969.000000,,2013-07-30 21:02:00,
2013-07-30 14:32:00,79.0,41.0,-100.00,SSW,203,7.0,14.0,26,0.00,,,0.00,823.000000,,2013-07-30 21:32:00,
2013-07-30 14:42:00,79.0,41.0,-100.00,SSW,203,7.0,14.0,26,0.00,,,0.00,823.000000,,2013-07-30 21:42:00,
2013-07-30 14:53:00,79.0,41.0,-100.00,SSW,203,7.0,14.0,26,0.00,,,0.00,823.000000,,2013-07-30 21:53:00,
2013-07-30 15:01:00,79.0,41.0,-100.00,SSW,203,7.0,14.0,26,0.00,,,0.00,823.000000,,2013-07-30 22:01:00,
2013-07-30 15:32:00,78.0,41.0,-100.00,SSW,201,5.0,13.0,27,0.00,,,0.00,427.000000,,2013-07-30 22:32:00,
2013-07-30 15:43:00,78.0,41.0,-100.00,SSW,201,5.0,13.0,27,0.00,,,0.00,427.000000,,2013-07-30 22:43:00,
2013-07-30 15:52:00,78.0,41.0,-100.00,SSW,201,5.0,13.0,27,0.00,,,0.00,427.000000,,2013-07-30 22:52:00,
2013-07-30 16:02:00,78.0,41.0,-100.00,SSW,201,5.0,13.0,27,0.00,,,0.00,427.000000,,2013-07-30 23:02:00,
2013-07-30 16:32:00,81.0,41.0,-100.00,SW,216,7.0,11.0,24,0.00,,,0.00,614.000000,,2013-07-30 23:32:00,
2013-07-30 16:42:00,81.0,41.0,-100.00,SW,216,7.0,11.0,24,0.00,,,0.00,614.000000,,2013-07-30 23:42:00,
2013-07-30 16:53:00,81.0,41.0,-100.00,SW,216,7.0,11.0,24,0.00,,,0.00,614.000000,,2013-07-30 23:53:00,
2013-07-30 17:02:00,81.0,41.0,-100.00,SW,216,7.0,11.0,24,0.00,,,0.00,614.000000,,2013-07-31 00:02:00,
2013-07-30 17:32:00,81.0,45.0,-100.00,SSW,198,6.0,11.0,28,0.00,,,0.00,422.000000,,2013-07-31 00:32:00,
2013-07-30 17:43:00,81.0,45.0,-100.00,SSW,198,6.0,11.0,28,0.00,,,0.00,422.000000,,2013-07-31 00:43:00,
2013-07-30 17:53:00,81.0,45.0,-100.00,SSW,198,6.0,11.0,28,0.00,,,0.00,422.000000,,2013-07-31 00:53:00,
2013-07-30 18:02:00,81.0,45.0,-100.00,SSW,198,6.0,11.0,28,0.00,,,0.00,422.000000,,2013-07-31 01:02:00,
2013-07-30 18:32:00,75.0,41.0,-100.00,WSW,238,5.0,10.0,29,0.00,,,0.00,185.000000,,2013-07-31 01:32:00,
2013-07-30 18:43:00,75.0,41.0,-100.00,WSW,238,5.0,10.0,29,0.00,,,0.00,185.000000,,2013-07-31 01:43:00,
2013-07-30 18:52:00,75.0,41.0,-100.00,WSW,238,5.0,10.0,29,0.00,,,0.00,185.000000,,2013-07-31 01:52:00,
2013-07-30 19:02:00,75.0,41.0,-100.00,WSW,238,5.0,10.0,29,0.00,,,0.00,185.000000,,2013-07-31 02:02:00,
2013-07-30 19:32:00,73.0,47.0,-100.00,SW,226,3.0,7.0,40,0.00,,,0.00,69.000000,,2013-07-31 02:32:00,
2013-07-30 19:43:00,73.0,47.0,-100.00,SW,226,3.0,7.0,40,0.00,,,0.00,69.000000,,2013-07-31 02:43:00,
2013-07-30 19:52:00,73.0,47.0,-100.00,SW,226,3.0,7.0,40,0.00,,,0.00,69.000000,,2013-07-31 02:52:00,
2013-07-30 20:02:00,73.0,47.0,-100.00,SW,226,3.0,7.0,40,0.00,,,0.00,69.000000,,2013-07-31 03:02:00,
2013-07-30 20:32:00,64.0,52.0,-100.00,NNW,341,0.0,0.0,64,0.00,,,0.00,6.000000,,2013-07-31 03:32:00,
2013-07-30 20:42:00,64.0,52.0,-100.00,NNW,341,0.0,0.0,64,0.00,,,0.00,6.000000,,2013-07-31 03:42:00,
2013-07-30 20:52:00,64.0,52.0,-100.00,NNW,341,0.0,0.0,64,0.00,,,0.00,6.000000,,2013-07-31 03:52:00,
2013-07-30 21:02:00,64.0,52.0,-100.00,NNW,341,0.0,0.0,64,0.00,,,0.00,6.000000,,2013-07-31 04:02:00,
2013-07-30 21:32:00,60.0,51.0,-100.00,NNW,341,0.0,0.0,73,0.00,,,0.00,0.000000,,2013-07-31 04:32:00,
2013-07-30 21:42:00,60.0,51.0,-100.00,NNW,341,0.0,0.0,73,0.00,,,0.00,0.000000,,2013-07-31 04:42:00,
2013-07-30 21:52:00,60.0,51.0,-100.00,NNW,341,0.0,0.0,73,0.00,,,0.00,0.000000,,2013-07-31 04:52:00,
2013-07-30 22:02:00,60.0,51.0,-100.00,NNW,341,0.0,0.0,73,0.00,,,0.00,0.000000,,2013-07-31 05:02:00,
2013-07-30 22:32:00,57.0,51.0,-100.00,NNE,14,0.0,0.0,80,0.00,,,0.00,0.000000,,2013-07-31 05:32:00,
2013-07-30 22:43:00,57.0,51.0,-100.00,NNE,14,0.0,0.0,80,0.00,,,0.00,0.000000,,2013-07-31 05:43:00,
2013-07-30 22:52:00,57.0,51.0,-100.00,NNE,14,0.0,0.0,80,0.00,,,0.00,0.000000,,2013-07-31 05:52:00,
2013-07-30 23:02:00,57.0,51.0,-100.00,NNE,14,0.0,0.0,80,0.00,,,0.00,0.000000,,2013-07-31 06:02:00,
2013-07-30 23:43:00,56.0,51.0,-100.00,NW,308,1.0,1.0,83,0.00,,,-99.99,0.000000,,2013-07-31 06:43:00,
2013-07-30 23:53:00,56.0,51.0,-100.00,NW,308,1.0,1.0,83,0.00,,,-99.99,0.000000,,2013-07-31 06:53:00,